BREEZE-KM DEB, 41718

Orbit data source: Space-Track

BREEZE-KM DEB, 41718 is space debris in LEO originally from a launch on Tue, 31 Mar 2015 UTC launched from the Plesetsk Missile And Space Complex (PKMTR). Debris objects in space refer to the collection of defunct objects orbiting the Earth. Examples of debris include non-operational satellites, rocket bodies, and fragments generated from explosions, collisions, or faulty payload assembly.

Loading next visibility...
BREEZE-KM DEB details
Identifier
41718, 2015-020F
Orbit
LEO
Last TLE update4 days ago
Origin
Flag of CISVVKO VKS (CIS)
ManufacturerKhrunichev
MissionSpacecraft
Bus & MotorUnknown
MassUnknown
Launch date (UTC)
2015-03-31 (10 years ago)
Launch vehicleUnknown
Launch site
Plesetsk Missile And Space Complex (PKMTR)
Object type
Payload
Rocket body
Debris
Shape & HBRUnknown
Radar Cross SectionSmall (<0.1 m²)

Expand to show TLE details & history

TLE from 4 days ago
0 BREEZE-KM DEB
1 41718U 15020F   24357.18940742  .00000095  00000-0  27088-3 0  9997
2 41718  82.4875 161.7970 0229570  88.3687 274.3701 12.91281567449938
Epoch: 2024-12-22T04:32Z
Definitive object data (Epoch: 2024-12-22T04:32:44.801Z)
Latitude0.00004°
Longitude2.38055°
Altitude1,289.816 km
Speed7.216 km/s
True Right ascension10h 47m 11s
True Declination0° 00' 00"
Sunlit
Object was in daylight at TLE epoch
Visualization TLE readout
Latitude-14.057°
Longitude-2.45708°
Altitude1,304.282 km
Speed7.203 km/s
Apparent Right ascension08h 17m 07s
Apparent Declination-59° 34' 27"
Sunlit
Object is in daylight
Visualization observer readout
Local Sidereal Time11:58:04
Azimuth206.171° SW
Elevation-19.381°
Doppler factor1
Orbital elements
Apogee altitude1,469.846 km
Perigee altitude1,117.6 km
Semi-major axis7,671.86 km
Eccentricity0.022957
Inclination82.4875°
RAAN161.797°
Arg. of periapsis88.3687°
True anomaly271.74224°
Mean anomaly274.3701°
Eccentric anomaly273.05663°
Mean motion3.22992 °/min
BSTAR0.00027088
Orbital period111.46 mins
Loading maneuver chart data...
Loading historical data...
Loading historical data...
Loading historical data...
Loading historical data...
Loading historical data...
Loading historical data...
Loading historical data...

BREEZE-KM DEB Visibility forecast

Observer location: undefined°, undefined

Span
Click to sort rows by Start time (UTC) header in descending order
Start Az.
Max El. time (UTC)
Max El. Az.
Max El.
End time (UTC)
End Az.
11 mins2024-12-26 12:48:32.369Z234.731° WSW2024-12-26 12:53:32.369Z282.54° WNW24.607°2024-12-26 12:59:32.369Z344.21° N
4 mins2024-12-26 20:45:32.369Z50.66° ENE2024-12-26 20:47:32.369Z68.491° E13.185°2024-12-26 20:49:32.369Z85.378° E
13 mins2024-12-26 22:34:32.369Z354.375° N2024-12-26 22:40:32.369Z96.328° ESE44.82°2024-12-26 22:47:32.369Z171.294° S
6 mins2024-12-27 00:29:32.369Z301.638° NW2024-12-27 00:31:32.369Z283.69° WNW14.924°2024-12-27 00:35:32.369Z249.524° W
12 mins2024-12-27 11:06:32.369Z169.961° S2024-12-27 11:11:32.369Z106.232° ESE42.095°2024-12-27 11:18:32.369Z13.963° NNE
|